| time (UTC) | temp F | wind direction | speed MPH | gust MPH | rain 1hr in | rain 24hr in | rain mn in | humidity % | barometer mb |
| 20260505185205 | 47 | 264 | 1.0 | 4.0 | 0.00 | 0.00 | 0.00 | 41 | 1010.9 |
| 20260505184706 | 47 | 264 | 1.0 | 4.0 | 0.00 | 0.00 | 0.00 | 38 | 1010.8 |
| 20260505184205 | 48 | 263 | 2.0 | 4.0 | 0.00 | 0.00 | 0.00 | 37 | 1010.8 |
| 20260505183708 | 48 | 271 | 2.0 | 6.0 | 0.00 | 0.00 | 0.00 | 36 | 1010.8 |
| 20260505182705 | 49 | 264 | 3.0 | 7.0 | 0.00 | 0.00 | 0.00 | 35 | 1010.8 |
| 20260505182205 | 49 | 266 | 3.0 | 6.0 | 0.00 | 0.00 | 0.00 | 34 | 1010.7 |
| 20260505181704 | 49 | 261 | 3.0 | 7.0 | 0.00 | 0.00 | 0.00 | 34 | 1010.7 |
| 20260505181204 | 50 | 247 | 3.0 | 9.0 | 0.00 | 0.00 | 0.00 | 34 | 1010.7 |
| 20260505180704 | 50 | 256 | 4.0 | 9.0 | 0.00 | 0.00 | 0.00 | 34 | 1010.7 |
| 20260505180205 | 50 | 249 | 4.0 | 9.0 | 0.00 | 0.00 | 0.00 | 33 | 1010.6 |
| 20260505175705 | 51 | 265 | 3.0 | 8.0 | 0.00 | 0.00 | 0.00 | 33 | 1010.6 |
| 20260505175204 | 51 | 240 | 3.0 | 8.0 | 0.00 | 0.00 | 0.00 | 33 | 1010.6 |
| 20260505174705 | 51 | 248 | 3.0 | 8.0 | 0.00 | 0.00 | 0.00 | 31 | 1010.5 |
| 20260505174204 | 51 | 259 | 3.0 | 8.0 | 0.00 | 0.00 | 0.00 | 31 | 1010.4 |
| 20260505173704 | 51 | 254 | 4.0 | 10.0 | 0.00 | 0.00 | 0.00 | 31 | 1010.2 |
| 20260505173205 | 51 | 284 | 3.0 | 10.0 | 0.00 | 0.00 | 0.00 | 31 | 1010.4 |
| 20260505172204 | 51 | 260 | 5.0 | 13.0 | 0.00 | 0.00 | 0.00 | 30 | 1010.4 |
| 20260505171706 | 51 | 263 | 5.0 | 10.0 | 0.00 | 0.00 | 0.00 | 30 | 1010.3 |
| 20260505165204 | 51 | 250 | 3.0 | 13.0 | 0.00 | 0.00 | 0.00 | 29 | 1010.3 |
| 20260505164204 | 52 | 240 | 6.0 | 13.0 | 0.00 | 0.00 | 0.00 | 28 | 1010.3 |
| 20260505163704 | 52 | 251 | 5.0 | 13.0 | 0.00 | 0.00 | 0.00 | 25 | 1010.3 |
| 20260505163205 | 52 | 229 | 5.0 | 13.0 | 0.00 | 0.00 | 0.00 | 28 | 1010.3 |
| 20260505162709 | 53 | 252 | 5.0 | 13.0 | 0.00 | 0.00 | 0.00 | 27 | 1010.3 |
| 20260505161204 | 53 | 265 | 5.0 | 13.0 | 0.00 | 0.00 | 0.00 | 26 | 1010.3 |
| 20260505160204 | 53 | 267 | 6.0 | 14.0 | 0.00 | 0.00 | 0.00 | 26 | 1010.3 |
| 20260505153204 | 53 | 334 | 8.0 | 17.0 | 0.00 | 0.00 | 0.00 | 24 | 1010.4 |
| 20260505152704 | 53 | 242 | 7.0 | 17.0 | 0.00 | 0.00 | 0.00 | 23 | 1010.3 |
| 20260505151705 | 53 | 235 | 6.0 | 14.0 | 0.00 | 0.00 | 0.00 | 24 | 1010.3 |
| 20260505151205 | 53 | 315 | 6.0 | 14.0 | 0.00 | 0.00 | 0.00 | 24 | 1010.3 |
| 20260505150205 | 53 | 292 | 7.0 | 15.0 | 0.00 | 0.00 | 0.00 | 24 | 1010.3 |
| 20260505140205 | 53 | 342 | 7.0 | 15.0 | 0.00 | 0.00 | 0.00 | 22 | 1010.0 |
| 20260505130205 | 53 | 257 | 9.0 | 17.0 | 0.00 | 0.00 | 0.00 | 25 | 1010.0 |
| 20260505124205 | 53 | 284 | 9.0 | 17.0 | 0.00 | 0.00 | 0.00 | 25 | 1010.1 |
| 20260505123704 | 53 | 270 | 7.0 | 16.0 | 0.00 | 0.00 | 0.00 | 24 | 1010.0 |
| 20260505123205 | 53 | 288 | 7.0 | 16.0 | 0.00 | 0.00 | 0.00 | 26 | 1009.9 |
| 20260505122205 | 53 | 305 | 7.0 | 15.0 | 0.00 | 0.00 | 0.00 | 24 | 1010.1 |
| 20260505120704 | 53 | 304 | 8.0 | 16.0 | 0.00 | 0.00 | 0.00 | 27 | 1010.0 |
| 20260505120204 | 53 | 297 | 7.0 | 15.0 | 0.00 | 0.00 | 0.00 | 25 | 1010.0 |
| 20260505115706 | 53 | 296 | 8.0 | 17.0 | 0.00 | 0.00 | 0.00 | 27 | 1010.1 |
| 20260505114206 | 53 | 317 | 8.0 | 15.0 | 0.00 | 0.00 | 0.00 | 29 | 1010.0 |
| 20260505113704 | 53 | 292 | 7.0 | 14.0 | 0.00 | 0.00 | 0.00 | 29 | 1010.0 |
| 20260505113205 | 53 | 280 | 7.0 | 14.0 | 0.00 | 0.00 | 0.00 | 29 | 1010.0 |
| 20260505112705 | 53 | 290 | 8.0 | 15.0 | 0.00 | 0.00 | 0.00 | 28 | 1010.0 |
| 20260505112504 | 53 | 307 | 9.0 | 17.0 | 0.00 | 0.00 | 0.00 | 29 | 1009.9 |
| 20260505111705 | 53 | 238 | 8.0 | 17.0 | 0.00 | 0.00 | 0.00 | 26 | 1009.9 |
| 20260505111205 | 53 | 300 | 8.0 | 17.0 | 0.00 | 0.00 | 0.00 | 28 | 1009.9 |
| 20260505110704 | 53 | 314 | 8.0 | 15.0 | 0.00 | 0.00 | 0.00 | 29 | 1009.8 |
| 20260505110205 | 53 | 284 | 6.0 | 13.0 | 0.00 | 0.00 | 0.00 | 33 | 1009.8 |
| 20260505102204 | 52 | 235 | 5.0 | 14.0 | 0.00 | 0.00 | 0.00 | 35 | 1009.8 |
| 20260505101204 | 51 | 321 | 5.0 | 14.0 | 0.00 | 0.00 | 0.00 | 35 | 1009.8 |
| 20260505100705 | 51 | 304 | 4.0 | 14.0 | 0.00 | 0.00 | 0.00 | 37 | 1009.8 |
| 20260505100205 | 51 | 267 | 4.0 | 14.0 | 0.00 | 0.00 | 0.00 | 36 | 1009.7 |
| 20260505095704 | 51 | 244 | 6.0 | 14.0 | 0.00 | 0.00 | 0.00 | 35 | 1009.8 |
| 20260505095209 | 50 | 297 | 6.0 | 13.0 | 0.00 | 0.00 | 0.00 | 35 | 1009.9 |
| 20260505094705 | 50 | 261 | 4.0 | 10.0 | 0.00 | 0.00 | 0.00 | 35 | 1009.9 |
| 20260505094205 | 51 | 162 | 3.0 | 10.0 | 0.00 | 0.00 | 0.00 | 34 | 1009.9 |
| 20260505093705 | 50 | 275 | 4.0 | 10.0 | 0.00 | 0.00 | 0.00 | 37 | 1009.8 |
| 20260505093206 | 50 | 294 | 5.0 | 10.0 | 0.00 | 0.00 | 0.00 | 38 | 1009.9 |
| 20260505092705 | 50 | 207 | 5.0 | 10.0 | 0.00 | 0.00 | 0.00 | 37 | 1009.8 |
| 20260505092204 | 49 | 230 | 5.0 | 15.0 | 0.00 | 0.00 | 0.00 | 35 | 1009.8 |
| 20260505091704 | 49 | 252 | 6.0 | 15.0 | 0.00 | 0.00 | 0.00 | 39 | 1009.9 |
| 20260505091205 | 49 | 217 | 7.0 | 15.0 | 0.00 | 0.00 | 0.00 | 38 | 1009.9 |
| 20260505090704 | 49 | 249 | 4.0 | 9.0 | 0.00 | 0.00 | 0.00 | 38 | 1009.9 |
| 20260505090204 | 49 | 233 | 4.0 | 9.0 | 0.00 | 0.00 | 0.00 | 40 | 1009.8 |
| 20260505085704 | 49 | 252 | 3.0 | 9.0 | 0.00 | 0.00 | 0.00 | 39 | 1009.9 |
| 20260505085205 | 49 | 316 | 3.0 | 10.0 | 0.00 | 0.00 | 0.00 | 43 | 1009.8 |
| 20260505084705 | 48 | 302 | 4.0 | 10.0 | 0.00 | 0.00 | 0.00 | 39 | 1009.8 |
| 20260505084205 | 48 | 326 | 5.0 | 10.0 | 0.00 | 0.00 | 0.00 | 41 | 1009.8 |
| 20260505083705 | 48 | 294 | 4.0 | 9.0 | 0.00 | 0.00 | 0.00 | 40 | 1009.8 |
| 20260505083205 | 48 | 263 | 4.0 | 14.0 | 0.00 | 0.00 | 0.00 | 40 | 1009.7 |
| 20260505082705 | 47 | 271 | 4.0 | 14.0 | 0.00 | 0.00 | 0.00 | 41 | 1009.8 |
| 20260505082204 | 47 | 16 | 5.0 | 14.0 | 0.00 | 0.00 | 0.00 | 40 | 1009.8 |
| 20260505081705 | 47 | 317 | 5.0 | 12.0 | 0.00 | 0.00 | 0.00 | 41 | 1009.9 |
| 20260505081204 | 47 | 300 | 5.0 | 11.0 | 0.00 | 0.00 | 0.00 | 40 | 1009.9 |
| 20260505080704 | 47 | 309 | 5.0 | 15.0 | 0.00 | 0.00 | 0.00 | 42 | 1009.9 |
| 20260505075704 | 46 | 307 | 4.0 | 15.0 | 0.00 | 0.00 | 0.00 | 42 | 1009.8 |
| 20260505075204 | 46 | 323 | 4.0 | 12.0 | 0.00 | 0.00 | 0.00 | 44 | 1009.8 |
| 20260505074704 | 46 | 304 | 5.0 | 12.0 | 0.00 | 0.00 | 0.00 | 44 | 1009.8 |
| 20260505073704 | 46 | 271 | 5.0 | 12.0 | 0.00 | 0.00 | 0.00 | 43 | 1009.7 |
| 20260505073204 | 46 | 300 | 4.0 | 12.0 | 0.00 | 0.00 | 0.00 | 46 | 1009.7 |
| 20260505072204 | 45 | 233 | 4.0 | 9.0 | 0.00 | 0.00 | 0.00 | 45 | 1009.7 |
| 20260505071704 | 45 | 265 | 4.0 | 10.0 | 0.00 | 0.00 | 0.00 | 47 | 1009.6 |
| 20260505071205 | 45 | 302 | 4.0 | 10.0 | 0.00 | 0.00 | 0.00 | 45 | 1009.6 |
| 20260505070704 | 45 | 319 | 5.0 | 10.0 | 0.00 | 0.00 | 0.00 | 46 | 1009.6 |
| 20260505065705 | 44 | 234 | 5.0 | 12.0 | 0.00 | 0.00 | 0.00 | 47 | 1009.5 |
| 20260505065205 | 44 | 311 | 4.0 | 12.0 | 0.00 | 0.00 | 0.00 | 48 | 1009.5 |
| 20260505064705 | 44 | 313 | 4.0 | 12.0 | 0.00 | 0.00 | 0.00 | 49 | 1009.5 |
| 20260505063704 | 44 | 276 | 5.0 | 10.0 | 0.00 | 0.00 | 0.00 | 46 | 1009.5 |
| 20260505063204 | 44 | 302 | 4.0 | 11.0 | 0.00 | 0.00 | 0.00 | 49 | 1009.5 |
| 20260505062704 | 44 | 301 | 5.0 | 11.0 | 0.00 | 0.00 | 0.00 | 50 | 1009.6 |
| 20260505062205 | 44 | 281 | 4.0 | 11.0 | 0.00 | 0.00 | 0.00 | 50 | 1009.6 |
| 20260505061705 | 44 | 246 | 4.0 | 11.0 | 0.00 | 0.00 | 0.00 | 51 | 1009.6 |
| 20260505061205 | 43 | 279 | 4.0 | 11.0 | 0.00 | 0.00 | 0.00 | 53 | 1009.6 |
| 20260505060704 | 43 | 243 | 4.0 | 11.0 | 0.00 | 0.00 | 0.00 | 52 | 1009.5 |
| 20260505060204 | 43 | 280 | 4.0 | 11.0 | 0.00 | 0.00 | 0.00 | 53 | 1009.5 |
| 20260505055704 | 43 | 317 | 5.0 | 13.0 | 0.00 | 0.00 | 0.00 | 52 | 1009.5 |
| 20260505055204 | 42 | 298 | 5.0 | 13.0 | 0.00 | 0.00 | 0.00 | 53 | 1009.5 |
| 20260505054704 | 42 | 299 | 5.0 | 13.0 | 0.00 | 0.00 | 0.00 | 53 | 1009.5 |
| 20260505054205 | 42 | 315 | 5.0 | 9.0 | 0.00 | 0.00 | 0.00 | 54 | 1009.5 |
| 20260505053705 | 42 | 316 | 4.0 | 11.0 | 0.00 | 0.00 | 0.00 | 56 | 1009.4 |
| 20260505053204 | 42 | 265 | 5.0 | 11.0 | 0.00 | 0.00 | 0.00 | 58 | 1009.3 |
| 20260505052205 | 42 | 276 | 3.0 | 10.0 | 0.00 | 0.00 | 0.00 | 59 | 1009.2 |
| 20260505051205 | 42 | 317 | 3.0 | 10.0 | 0.00 | 0.00 | 0.00 | 60 | 1009.1 |
| 20260505050705 | 41 | 302 | 3.0 | 6.0 | 0.00 | 0.00 | 0.00 | 63 | 1009.1 |
| 20260505050204 | 41 | 0 | 3.0 | 8.0 | 0.00 | 0.00 | 0.00 | 64 | 1009.0 |
| 20260505041705 | 40 | 279 | 1.0 | 6.0 | 0.00 | 0.00 | 0.00 | 68 | 1008.7 |
| 20260505041204 | 40 | 278 | 1.0 | 6.0 | 0.00 | 0.00 | 0.00 | 69 | 1008.8 |
| 20260505040704 | 39 | 277 | 2.0 | 6.0 | 0.00 | 0.00 | 0.00 | 71 | 1008.7 |
| 20260505040204 | 39 | 267 | 2.0 | 6.0 | 0.00 | 0.00 | 0.00 | 72 | 1008.6 |
| 20260505035705 | 39 | 266 | 2.0 | 6.0 | 0.00 | 0.00 | 0.00 | 74 | 1008.7 |
| 20260505035204 | 39 | 275 | 2.0 | 6.0 | 0.00 | 0.00 | 0.00 | 76 | 1008.5 |
| 20260505034704 | 39 | 272 | 2.0 | 6.0 | 0.00 | 0.00 | 0.00 | 77 | 1008.5 |
| 20260505034205 | 40 | 283 | 2.0 | 6.0 | 0.00 | 0.00 | 0.00 | 77 | 1008.5 |
| 20260505033205 | 40 | 295 | 1.0 | 5.0 | 0.00 | 0.00 | 0.00 | 76 | 1008.4 |
| 20260505032704 | 40 | 301 | 1.0 | 8.0 | 0.00 | 0.00 | 0.00 | 76 | 1008.4 |
| 20260505032204 | 41 | 300 | 2.0 | 8.0 | 0.00 | 0.00 | 0.00 | 77 | 1008.3 |
| 20260505031705 | 41 | 304 | 3.0 | 7.0 | 0.00 | 0.00 | 0.00 | 78 | 1008.2 |
| 20260505031205 | 41 | 315 | 3.0 | 7.0 | 0.00 | 0.00 | 0.00 | 80 | 1008.2 |
| 20260505030704 | 41 | 290 | 2.0 | 5.0 | 0.00 | 0.00 | 0.00 | 81 | 1008.1 |
| 20260505030204 | 41 | 243 | 1.0 | 3.0 | 0.00 | 0.00 | 0.00 | 84 | 1008.1 |
| 20260505025705 | 41 | 242 | 1.0 | 3.0 | 0.00 | 0.00 | 0.00 | 84 | 1008.0 |
| 20260505025205 | 41 | 242 | 1.0 | 4.0 | 0.00 | 0.00 | 0.00 | 84 | 1008.0 |
| 20260505024704 | 42 | 242 | 1.0 | 6.0 | 0.00 | 0.00 | 0.00 | 84 | 1008.0 |
| 20260505024211 | 42 | 242 | 2.0 | 6.0 | 0.00 | 0.00 | 0.00 | 84 | 1007.9 |
| 20260505023704 | 42 | 240 | 2.0 | 4.0 | 0.00 | 0.00 | 0.00 | 84 | 1007.9 |
| 20260505023204 | 42 | 252 | 1.0 | 5.0 | 0.00 | 0.00 | 0.00 | 84 | 1007.8 |
| 20260505022204 | 43 | 251 | 2.0 | 7.0 | 0.00 | 0.01 | 0.00 | 84 | 1007.8 |
| 20260505021704 | 43 | 255 | 3.0 | 7.0 | 0.00 | 0.01 | 0.00 | 84 | 1007.7 |
| 20260505020205 | 44 | 273 | 2.0 | 8.0 | 0.00 | 0.01 | 0.00 | 84 | 1007.8 |
| 20260505015204 | 44 | 267 | 4.0 | 9.0 | 0.00 | 0.01 | 0.00 | 85 | 1007.6 |
| 20260505014204 | 44 | 273 | 3.0 | 9.0 | 0.00 | 0.01 | 0.00 | 85 | 1007.8 |
| 20260505013704 | 44 | 250 | 4.0 | 9.0 | 0.00 | 0.01 | 0.00 | 85 | 1007.7 |
| 20260505013205 | 44 | 269 | 3.0 | 10.0 | 0.00 | 0.01 | 0.00 | 85 | 1007.7 |
| 20260505012705 | 44 | 267 | 4.0 | 10.0 | 0.00 | 0.02 | 0.00 | 85 | 1007.7 |
| 20260505012206 | 44 | 258 | 4.0 | 9.0 | 0.00 | 0.02 | 0.00 | 85 | 1007.6 |
| 20260505011705 | 44 | 249 | 3.0 | 9.0 | 0.00 | 0.02 | 0.00 | 85 | 1007.6 |
| 20260505011204 | 44 | 237 | 3.0 | 10.0 | 0.00 | 0.02 | 0.00 | 85 | 1007.6 |
| 20260505010704 | 45 | 233 | 4.0 | 10.0 | 0.00 | 0.02 | 0.00 | 85 | 1007.7 |
| 20260505010204 | 45 | 242 | 4.0 | 11.0 | 0.00 | 0.02 | 0.00 | 85 | 1007.6 |
| 20260505005704 | 45 | 254 | 4.0 | 11.0 | 0.00 | 0.02 | 0.00 | 85 | 1007.7 |
| 20260505005205 | 44 | 242 | 4.0 | 11.0 | 0.00 | 0.03 | 0.00 | 85 | 1007.6 |
| 20260505004205 | 44 | 239 | 3.0 | 8.0 | 0.00 | 0.03 | 0.00 | 85 | 1007.7 |
| 20260505003705 | 44 | 254 | 3.0 | 8.0 | 0.00 | 0.03 | 0.00 | 85 | 1007.8 |
| 20260505003205 | 44 | 238 | 3.0 | 9.0 | 0.00 | 0.03 | 0.00 | 85 | 1007.7 |
| 20260505002704 | 44 | 265 | 3.0 | 9.0 | 0.00 | 0.03 | 0.00 | 85 | 1007.7 |
| 20260505002204 | 44 | 258 | 3.0 | 10.0 | 0.00 | 0.03 | 0.00 | 85 | 1007.6 |
| 20260505001705 | 44 | 219 | 4.0 | 10.0 | 0.00 | 0.04 | 0.00 | 85 | 1007.5 |
| 20260505001205 | 45 | 243 | 4.0 | 11.0 | 0.00 | 0.04 | 0.00 | 85 | 1007.6 |
| 20260505000704 | 45 | 230 | 4.0 | 11.0 | 0.00 | 0.04 | 0.00 | 85 | 1007.6 |
| 20260505000204 | 45 | 254 | 5.0 | 11.0 | 0.00 | 0.04 | 0.00 | 85 | 1007.5 |
| 20260504235704 | 45 | 250 | 5.0 | 10.0 | 0.00 | 0.04 | 0.00 | 85 | 1007.5 |
| 20260504235204 | 45 | 232 | 4.0 | 10.0 | 0.00 | 0.04 | 0.00 | 85 | 1007.5 |
| 20260504234704 | 45 | 221 | 4.0 | 10.0 | 0.00 | 0.04 | 0.00 | 85 | 1007.5 |
| 20260504234205 | 45 | 254 | 4.0 | 10.0 | 0.00 | 0.04 | 0.00 | 85 | 1007.5 |
| 20260504233206 | 45 | 242 | 5.0 | 11.0 | 0.00 | 0.04 | 0.00 | 85 | 1007.5 |
| 20260504232205 | 45 | 228 | 4.0 | 11.0 | 0.00 | 0.04 | 0.00 | 85 | 1007.5 |
| 20260504231704 | 45 | 232 | 4.0 | 11.0 | 0.00 | 0.04 | 0.00 | 85 | 1007.5 |
| 20260504231205 | 46 | 227 | 5.0 | 13.0 | 0.00 | 0.04 | 0.00 | 85 | 1007.5 |
| 20260504230705 | 46 | 216 | 6.0 | 13.0 | 0.00 | 0.04 | 0.00 | 85 | 1007.4 |
| 20260504230205 | 46 | 209 | 7.0 | 13.0 | 0.00 | 0.04 | 0.00 | 85 | 1007.4 |
| 20260504225704 | 46 | 248 | 7.0 | 12.0 | 0.00 | 0.04 | 0.00 | 85 | 1007.4 |
| 20260504225204 | 45 | 199 | 7.0 | 13.0 | 0.00 | 0.04 | 0.00 | 85 | 1007.4 |
| 20260504224704 | 46 | 217 | 7.0 | 13.0 | 0.00 | 0.04 | 0.00 | 85 | 1007.5 |
| 20260504223704 | 45 | 215 | 7.0 | 13.0 | 0.00 | 0.04 | 0.00 | 86 | 1007.4 |
| 20260504223205 | 45 | 212 | 7.0 | 12.0 | 0.00 | 0.04 | 0.00 | 86 | 1007.4 |
| 20260504222705 | 45 | 217 | 7.0 | 12.0 | 0.00 | 0.04 | 0.00 | 85 | 1007.4 |
| 20260504220705 | 45 | 198 | 8.0 | 13.0 | 0.00 | 0.04 | 0.00 | 85 | 1007.5 |
| 20260504220205 | 46 | 202 | 7.0 | 12.0 | 0.00 | 0.04 | 0.04 | 85 | 1007.5 |
| 20260504215705 | 46 | 227 | 7.0 | 12.0 | 0.00 | 0.04 | 0.04 | 85 | 1007.5 |
| 20260504215205 | 46 | 219 | 7.0 | 11.0 | 0.00 | 0.04 | 0.04 | 85 | 1007.5 |
| 20260504214704 | 46 | 230 | 7.0 | 11.0 | 0.00 | 0.04 | 0.04 | 85 | 1007.4 |
| 20260504214205 | 46 | 228 | 7.0 | 15.0 | 0.00 | 0.04 | 0.04 | 85 | 1007.4 |
| 20260504213704 | 46 | 232 | 7.0 | 15.0 | 0.00 | 0.04 | 0.04 | 84 | 1007.4 |
| 20260504213204 | 46 | 234 | 7.0 | 15.0 | 0.00 | 0.04 | 0.04 | 84 | 1007.4 |
| 20260504212704 | 46 | 213 | 7.0 | 12.0 | 0.00 | 0.04 | 0.04 | 84 | 1007.4 |
| 20260504212204 | 46 | 203 | 7.0 | 16.0 | 0.00 | 0.04 | 0.04 | 84 | 1007.4 |
| 20260504211204 | 46 | 243 | 7.0 | 16.0 | 0.00 | 0.04 | 0.04 | 84 | 1007.4 |
| 20260504210705 | 46 | 219 | 7.0 | 13.0 | 0.00 | 0.04 | 0.04 | 84 | 1007.4 |
| 20260504210208 | 46 | 237 | 7.0 | 14.0 | 0.00 | 0.04 | 0.04 | 84 | 1007.4 |
| 20260504205704 | 46 | 225 | 8.0 | 14.0 | 0.00 | 0.04 | 0.04 | 83 | 1007.4 |
| 20260504205204 | 46 | 219 | 7.0 | 14.0 | 0.00 | 0.04 | 0.04 | 84 | 1007.5 |
| 20260504204704 | 46 | 261 | 6.0 | 14.0 | 0.00 | 0.04 | 0.04 | 83 | 1007.5 |
| 20260504204204 | 46 | 238 | 7.0 | 16.0 | 0.00 | 0.04 | 0.04 | 83 | 1007.6 |
| 20260504203704 | 46 | 234 | 7.0 | 16.0 | 0.00 | 0.04 | 0.04 | 83 | 1007.6 |
| 20260504203204 | 46 | 223 | 8.0 | 16.0 | 0.00 | 0.04 | 0.04 | 83 | 1007.6 |
| 20260504202705 | 46 | 225 | 7.0 | 16.0 | 0.00 | 0.04 | 0.04 | 83 | 1007.6 |
| 20260504202205 | 46 | 227 | 6.0 | 16.0 | 0.00 | 0.04 | 0.04 | 83 | 1007.5 |
| 20260504201705 | 46 | 202 | 6.0 | 16.0 | 0.00 | 0.04 | 0.04 | 82 | 1007.5 |
| 20260504201205 | 46 | 240 | 7.0 | 16.0 | 0.00 | 0.04 | 0.04 | 82 | 1007.5 |
| 20260504200705 | 47 | 270 | 8.0 | 16.0 | 0.00 | 0.04 | 0.04 | 82 | 1007.5 |
| 20260504195704 | 47 | 251 | 8.0 | 15.0 | 0.00 | 0.04 | 0.04 | 82 | 1007.5 |
| 20260504195204 | 47 | 244 | 7.0 | 15.0 | 0.00 | 0.04 | 0.04 | 81 | 1007.6 |
| 20260504194204 | 47 | 257 | 8.0 | 20.0 | 0.00 | 0.04 | 0.04 | 81 | 1007.5 |
| 20260504193705 | 47 | 236 | 9.0 | 20.0 | 0.00 | 0.04 | 0.04 | 80 | 1007.5 |
| 20260504193205 | 47 | 215 | 8.0 | 21.0 | 0.00 | 0.04 | 0.04 | 80 | 1007.5 |
| 20260504192704 | 47 | 214 | 7.0 | 21.0 | 0.00 | 0.04 | 0.04 | 80 | 1007.3 |
| 20260504192205 | 47 | 240 | 9.0 | 21.0 | 0.00 | 0.04 | 0.04 | 79 | 1007.4 |
| 20260504191705 | 47 | 225 | 8.0 | 18.0 | 0.00 | 0.04 | 0.04 | 79 | 1007.3 |
| 20260504191205 | 47 | 203 | 8.0 | 18.0 | 0.00 | 0.04 | 0.04 | 79 | 1007.3 |
| 20260504190704 | 48 | 252 | 8.0 | 17.0 | 0.00 | 0.04 | 0.04 | 78 | 1007.2 |
| 20260504190205 | 48 | 236 | 7.0 | 17.0 | 0.00 | 0.04 | 0.04 | 77 | 1007.2 |
| 20260504185704 | 48 | 240 | 8.0 | 22.0 | 0.00 | 0.04 | 0.04 | 77 | 1007.2 |